{"data":{"norad_id":67378,"intl_designator":"2026-004R","name":"AETHER-7","alt_names":[],"object_type":"PAYLOAD","status":"ACTIVE","operator":null,"country":"CA","launch_date":"2026-01-11","launch_site_code":"AFWTR","launch_vehicle":null,"mission":null,"orbit_class":"UNKNOWN","rcs_meters":null,"size_class":null,"mass_kg":null,"dimensions":null,"purposes":[],"wikipedia_slug":null,"has_3d_model":false,"image_url":null,"decayed_at":null,"tle_current":{"epoch":"2026-09-20T22:55:53.379552Z","epoch_age_seconds":60755,"freshness":"FRESH","line1":"1 67378U 26004R   26263.95547893  .00000960  00000+0  11459-3 0  9999","line2":"2 67378  97.8084 260.6843 0003441 148.5567 211.5855 14.86490557 37507","mean_motion":14.86490557,"eccentricity":0.0003441,"inclination_deg":97.8084,"raan_deg":260.6843,"arg_perigee_deg":148.5567,"mean_anomaly_deg":211.5855,"bstar":0.00011459,"rev_number":3750,"period_min":96.872462002461,"perigee_km":606.50694016935,"apogee_km":611.3154267292,"semimajor_km":6987.0481834493,"source":"CELESTRAK","updated_at":"2026-09-21T09:00:16.595369Z"}}}